Weather Roundup
Issued by NWS Chicago, IL

Home | Current Version | Previous Version | Graphics & Text | Print | Product List | Glossary On
Versions: 1 2 3 4 5 6 7 8 9 10 11 12 13 14 15 16 17 18 19 20 21 22 23 24 25 26 27 28 29 30 31 32 33 34 35 36 37 38 39 40 41 42 43 44 45 46 47 48 49 50
000
NZUS59 KLOT 072221
HRRLOT

CHICAGO AREA WEATHER ROUNDUP
NATIONAL WEATHER SERVICE CHICAGO/ROMEOVILLE IL
500 PM CDT TUE JUL 07 2015

NOTE: "FAIR" INDICATES FEW OR NO CLOUDS BELOW 12,000 FEET WITH NO
SIGNIFICANT WEATHER AND/OR OBSTRUCTIONS TO VISIBILITY.

* THESE STATIONS ARE NOT UNDER NWS QUALITY CONTROL. THEY ALSO MAY NOT
  REPORT WEATHER SUCH AS PRECIPITATION OR FOG.

ILZ005-006-012>014-019>023-072300-
NORTHEAST ILLINOIS

CITY           SKY/WX    TMP DP  RH WIND       PRES   REMARKS
OHARE          MOSUNNY   65  47  52 NE17      30.06R
MIDWAY         MOSUNNY   66  45  46 NE15G22   30.06R
AURORA         MOSUNNY   71  52  50 N7        30.05R
LANSING*       SUNNY     64  44  48 NE17G24   30.06R
JOLIET*        SUNNY     70  53  54 NE12      30.04R
WAUKEGAN       SUNNY     60  48  64 N12       30.07R
DUPAGE AIRPORT SUNNY     68  50  52 NE10      30.05R
WHEELING       SUNNY     63  46  54 NE16G26   30.08R
KANKAKEE*      MOSUNNY   67  51  57 NE10G18   30.05S
MORRIS*        CLOUDY    70  52  52 NE6       30.02S
LEWIS AIRPORT* SUNNY     68  50  52 NE12      30.05R
NORTHERLY IS     N/A     61  49  64 N14         N/A
$$

WIZ051-052-058>065-066-070>072-072300-
SOUTHEAST WISCONSIN

CITY           SKY/WX    TMP DP  RH WIND       PRES   REMARKS
MILWAUKEE      MOSUNNY   62  49  62 NE13G22   30.08R
KENOSHA*       SUNNY     64  51  62 NE13      30.08R
RACINE*        SUNNY     63  49  60 NE14      30.09R
BURLINGTON     PTSUNNY   66  50  56 E7        30.06R
WAUKESHA       PTSUNNY   64  48  55 NW8       30.07S
WEST BEND      PTSUNNY   66  45  45 N8        30.07R
$$

INZ001>003-010>013-019-020-072300-
NORTHWEST INDIANA

CITY           SKY/WX    TMP DP  RH WIND       PRES   REMARKS
GARY*          MOSUNNY   64  50  59 N14G30    30.07R
MICHIGAN CITY* NOT AVBL
RENSSELAER*    NOT AVBL
VALPARAISO     SUNNY     65  48  54 N14G23    30.04R
$$

LMZ740>746-072300-
SOUTHERN LAKE MICHIGAN

STATION/POSITION TIME  SKY/WX   TEMP WIND        PRES    VSBY
                                AIR  DIR/SP/G
                 (UTC)          (F)  (DEG/KT/KT) (MB)    (MI)
HARRISON CRIB    2200            58   20/ 17/ 19   N/A
BURNHAM HARBOR   2200            61   20/ 10/ 15   N/A
CALUMET HARBOR   2100            62  360/ 11/ 18   N/A
BURNS HARBOR     2100            62   30/ 21/ 24 1017.6S
MICHIGAN CITY    2200            61  360/ 26/ 31   N/A
$$

ABBREVIATIONS USED IN REMARKS
   TC - TEMPERATURE IN CELSIUS
  WCI - WIND CHILL INDEX
   HX - HEAT INDEX
  VSB - VISIBILITY
$$



USA.gov is the U.S. government's official web portal to all federal, state and local government web resources and services.